Home > Weather > San Diego > Past weeks

Flag for U.S.A. Weather for the Past 2 Weeks in San Diego, California, U.S.A.

Now
55 °F

Passing clouds.


Feels Like: 55 °F
Forecast: 58 / 80 °F
Wind: No wind

Location: San Diego - North Island

Current Time: Feb 11, 2016 at 7:07:04 AM

Latest Report: Feb 11, 2016 at 5:52 AM


Visibility: 10 mi

Pressure: 30.06 "Hg

Humidity: 62%

Dew point: 42 °F

Location of San DiegoLocation

Historic Weather in San Diego — Graph

°F

San Diego Temperature Yesterday

Maximum temperature yesterday: 81 °F (at 1:52 PM)
Minimum temperature yesterday: 52 °F (at 5:52 AM)
Average temperature yesterday: 64 °F

High & Low Weather Summary for the Past Weeks

 TemperatureHumidityPressure
High81 °F (Feb 9, 1:52 PM)100% (Jan 30, 12:00 AM)30.35 "Hg (Jan 30, 12:00 AM)
Low39 °F (Feb 2, 5:52 AM)10% (Feb 7, 12:52 PM)29.73 "Hg (Jan 31, 2:52 PM)
Average57 °F59%30.12 "Hg
* Reported Jan 27 5:52 AM — Feb 11 5:52 AM, San Diego, Weather by CustomWeather, © 2016

Note: Actual official high and low records may vary slightly from our data, if they occured in-between our weather recording intervals... More about our weather records

Advertising

San Diego Weather History for the Previous 24 Hours

 ConditionsComfort  
Time TempWeatherWind HumidityBarometerVisibility
5:52 AM
Thu, Feb 11
55 °FPassing clouds.No wind62%30.06 "Hg10 mi
4:52 AM55 °FPassing clouds.No wind62%30.06 "Hg10 mi
3:52 AM54 °FPassing clouds.No wind69%30.06 "Hg10 mi
2:52 AM54 °FPassing clouds.No wind69%30.06 "Hg10 mi
1:52 AM54 °FPassing clouds.No wind69%30.07 "Hg10 mi
12:52 AM54 °FPassing clouds.No wind72%30.08 "Hg8 mi
11:52 PM
Wed, Feb 10
54 °FPassing clouds.No wind80%30.09 "Hg8 mi
10:52 PM56 °FPassing clouds.No wind77%30.09 "Hg10 mi
9:52 PM57 °FPassing clouds.No wind47%30.09 "Hg10 mi
8:52 PM61 °FPassing clouds.No wind35%30.08 "Hg10 mi
7:52 PM64 °FPassing clouds.No wind28%30.08 "Hg10 mi
6:52 PM66 °FPassing clouds.No wind28%30.08 "Hg10 mi
5:52 PM67 °FPassing clouds.5 mph33%30.07 "Hg10 mi
4:52 PM70 °FPassing clouds.3 mph30%30.06 "Hg10 mi
3:52 PM77 °FScattered clouds.5 mph15%30.05 "Hg10 mi
2:52 PM78 °FScattered clouds.5 mph16%30.05 "Hg10 mi
1:52 PM81 °FScattered clouds.9 mph14%30.06 "Hg10 mi
12:52 PM79 °FScattered clouds.5 mph25%30.08 "Hg10 mi
11:52 AM78 °FScattered clouds.3 mph18%30.11 "Hg10 mi
10:52 AM76 °FPartly sunny.No wind19%30.14 "Hg10 mi
9:52 AM67 °FPartly sunny.5 mph32%30.15 "Hg10 mi
8:52 AM62 °FPartly sunny.5 mph54%30.14 "Hg10 mi
7:52 AM57 °FScattered clouds.No wind67%30.12 "Hg10 mi
Weather by CustomWeather, © 2016

See weather overviewHow to use our weather pages